Back to catalog

SL-12 R/B(2)

AliveHEO
NORAD 25074·ROCKET BODY·🇷🇺 Russia

Launched Dec 2, 1997 from Baikonur Cosmodrome

Loading…

Next Passes (next 24 hours)

TLE

FreshSource: Space-Track

Epoch: Sep 14, 2026, 07:26 UTC

1 25074U 97076D   26257.31000447 -.00000113  00000-0  00000-0 0  9994
2 25074  14.0300  10.1961 4366107  58.8423  91.3719  1.71946351180739

Track SL-12 R/B(2) in real time with AllMySat

Download on the App Store